Time,TemperatureF,DewpointF,PressureIn,WindDirection,WindDirectionDegrees,WindSpeedMPH,WindSpeedGustMPH,Humidity,HourlyPrecipIn,Conditions,Clouds,dailyrainin,SoftwareType,DateUTC
2013-04-11 00:00:00,40.1,37.4,28.59,NW,321,0.0,0.0,90,0.00,,-RA,0.00,VWS V14.00,2013-04-11 05:00:00,
2013-04-11 00:05:00,40.1,37.4,28.59,NW,321,0.0,0.0,90,0.00,,-RA,0.00,VWS V14.00,2013-04-11 05:05:00,
2013-04-11 00:10:00,40.1,37.4,28.59,NW,321,0.0,0.0,90,0.00,,-RA,0.00,VWS V14.00,2013-04-11 05:10:00,
2013-04-11 00:15:00,40.1,37.4,28.61,NW,321,0.0,0.0,90,0.04,,-RA,0.04,VWS V14.00,2013-04-11 05:15:00,
2013-04-11 00:20:00,40.1,37.4,28.61,NW,321,0.0,0.0,90,0.04,,-RA,0.04,VWS V14.00,2013-04-11 05:20:00,
2013-04-11 00:25:00,40.1,37.7,28.61,NW,321,0.0,0.0,91,0.04,,-RA,0.04,VWS V14.00,2013-04-11 05:25:00,
2013-04-11 00:30:00,40.3,37.9,28.59,NW,321,0.0,0.0,91,0.04,,-RA,0.04,VWS V14.00,2013-04-11 05:30:00,
2013-04-11 00:35:00,40.3,37.9,28.59,NW,321,0.0,0.0,91,0.04,,-RA,0.04,VWS V14.00,2013-04-11 05:35:00,
2013-04-11 00:40:00,40.3,37.9,28.59,NW,321,0.0,0.0,91,0.04,,-RA,0.04,VWS V14.00,2013-04-11 05:40:00,
2013-04-11 00:45:00,40.3,37.9,28.59,North,353,3.1,4.0,91,0.04,,-RA,0.04,VWS V14.00,2013-04-11 05:45:00,
2013-04-11 00:50:00,40.3,37.9,28.59,NNW,341,3.1,4.0,91,0.04,,-RA,0.04,VWS V14.00,2013-04-11 05:50:00,
2013-04-11 00:55:00,40.1,37.7,28.59,NW,324,5.4,8.1,91,0.04,,-RA,0.04,VWS V14.00,2013-04-11 05:55:00,
2013-04-11 01:00:00,40.3,37.9,28.56,NNE,25,3.1,4.9,91,0.04,,-RA,0.04,VWS V14.00,2013-04-11 06:00:00,
2013-04-11 01:05:00,40.1,37.7,28.56,NE,43,3.6,6.3,91,0.04,,-RA,0.04,VWS V14.00,2013-04-11 06:05:00,
2013-04-11 01:10:00,40.3,37.9,28.56,NNE,13,5.4,5.8,91,0.04,,-RA,0.04,VWS V14.00,2013-04-11 06:10:00,
2013-04-11 01:15:00,40.1,37.7,28.56,NNE,32,5.8,5.8,91,0.04,,-RA,0.04,VWS V14.00,2013-04-11 06:15:00,
2013-04-11 01:20:00,40.1,38.0,28.56,North,8,2.2,2.2,92,0.00,,-RA,0.04,VWS V14.00,2013-04-11 06:20:00,
2013-04-11 01:25:00,40.1,38.0,28.56,North,0,0.0,4.0,92,0.04,,-RA,0.08,VWS V14.00,2013-04-11 06:25:00,
2013-04-11 01:30:00,40.3,38.2,28.56,NNE,15,3.6,3.6,92,0.04,,-RA,0.08,VWS V14.00,2013-04-11 06:30:00,
2013-04-11 01:35:00,40.1,38.0,28.56,NNE,24,2.2,3.6,92,0.04,,-RA,0.08,VWS V14.00,2013-04-11 06:35:00,
2013-04-11 01:40:00,40.1,38.0,28.56,NE,47,0.0,0.0,92,0.04,,-RA,0.08,VWS V14.00,2013-04-11 06:40:00,
2013-04-11 01:45:00,40.1,38.0,28.59,NE,47,0.0,0.0,92,0.04,,-RA,0.08,VWS V14.00,2013-04-11 06:45:00,
2013-04-11 01:50:00,40.3,38.2,28.59,NE,47,0.0,0.0,92,0.08,,-RA,0.12,VWS V14.00,2013-04-11 06:50:00,
2013-04-11 01:55:00,40.1,38.0,28.59,NE,47,0.0,0.0,92,0.08,,-RA,0.12,VWS V14.00,2013-04-11 06:55:00,
2013-04-11 02:00:00,40.1,38.0,28.59,NE,52,0.0,0.0,92,0.08,,-RA,0.12,VWS V14.00,2013-04-11 07:00:00,
2013-04-11 02:05:00,40.1,38.0,28.59,NE,52,0.0,0.0,92,0.08,,-RA,0.12,VWS V14.00,2013-04-11 07:05:00,
2013-04-11 02:10:00,40.1,38.0,28.56,NE,52,0.0,0.0,92,0.08,,-RA,0.12,VWS V14.00,2013-04-11 07:10:00,
2013-04-11 02:15:00,40.1,38.0,28.56,NNW,340,0.0,0.0,92,0.08,,-RA,0.12,VWS V14.00,2013-04-11 07:15:00,
2013-04-11 02:20:00,40.1,38.0,28.56,NNW,340,0.0,0.0,92,0.08,,-RA,0.12,VWS V14.00,2013-04-11 07:20:00,
2013-04-11 02:25:00,39.9,37.8,28.56,NNW,340,0.0,0.0,92,0.16,,-RA,0.20,VWS V14.00,2013-04-11 07:25:00,
2013-04-11 02:30:00,40.1,38.0,28.56,NNW,340,0.0,0.0,92,0.12,,-RA,0.20,VWS V14.00,2013-04-11 07:30:00,
2013-04-11 02:35:00,40.1,38.0,28.56,NNW,340,0.0,0.0,92,0.12,,-RA,0.20,VWS V14.00,2013-04-11 07:35:00,
2013-04-11 02:40:00,40.1,38.0,28.56,NNW,340,0.0,0.0,92,0.12,,-RA,0.20,VWS V14.00,2013-04-11 07:40:00,
2013-04-11 02:45:00,40.3,38.2,28.56,NNW,340,0.0,0.0,92,0.12,,-RA,0.20,VWS V14.00,2013-04-11 07:45:00,
2013-04-11 02:50:00,40.3,38.2,28.56,NNW,340,0.0,0.0,92,0.08,,-RA,0.20,VWS V14.00,2013-04-11 07:50:00,
2013-04-11 02:55:00,40.1,38.2,28.56,NNW,340,0.0,0.0,93,0.08,,-RA,0.20,VWS V14.00,2013-04-11 07:55:00,
2013-04-11 03:00:00,40.1,38.2,28.56,NNW,340,0.0,0.0,93,0.08,,-RA,0.20,VWS V14.00,2013-04-11 08:00:00,
2013-04-11 03:05:00,40.1,38.2,28.56,NNW,340,0.0,0.0,93,0.08,,-RA,0.20,VWS V14.00,2013-04-11 08:05:00,
2013-04-11 03:10:00,40.3,38.4,28.56,NNW,340,0.0,0.0,93,0.08,,-RA,0.20,VWS V14.00,2013-04-11 08:10:00,
2013-04-11 03:15:00,40.3,38.4,28.56,NNW,340,0.0,0.0,93,0.08,,-RA,0.20,VWS V14.00,2013-04-11 08:15:00,
2013-04-11 03:20:00,40.3,38.4,28.56,NNW,340,0.0,0.0,93,0.08,,-RA,0.20,VWS V14.00,2013-04-11 08:20:00,
2013-04-11 03:25:00,40.3,38.4,28.56,NNW,340,0.0,0.0,93,0.08,,-RA,0.20,VWS V14.00,2013-04-11 08:25:00,
2013-04-11 03:30:00,40.3,38.4,28.56,NNW,340,0.0,0.0,93,0.00,,-RA,0.20,VWS V14.00,2013-04-11 08:30:00,
2013-04-11 03:35:00,40.1,38.2,28.56,NNW,340,0.0,0.0,93,0.00,,-RA,0.20,VWS V14.00,2013-04-11 08:35:00,
2013-04-11 03:40:00,40.3,38.4,28.56,NNW,340,0.0,0.0,93,0.00,,-RA,0.20,VWS V14.00,2013-04-11 08:40:00,
2013-04-11 03:45:00,40.3,38.4,28.56,NNW,340,0.0,0.0,93,0.00,,-RA,0.20,VWS V14.00,2013-04-11 08:45:00,
2013-04-11 03:50:00,40.3,38.4,28.56,NNW,340,0.0,0.0,93,0.04,,-RA,0.24,VWS V14.00,2013-04-11 08:50:00,
2013-04-11 03:55:00,40.1,38.2,28.56,NNW,340,0.0,0.0,93,0.04,,-RA,0.24,VWS V14.00,2013-04-11 08:55:00,
2013-04-11 04:00:00,40.1,38.2,28.53,NNW,340,0.0,0.0,93,0.04,,-RA,0.00,VWS V14.00,2013-04-11 09:00:00,
2013-04-11 04:05:00,40.3,38.4,28.53,NNW,340,0.0,0.0,93,0.04,,-RA,0.24,VWS V14.00,2013-04-11 09:05:00,
2013-04-11 04:10:00,40.3,38.4,28.53,NNW,340,0.0,0.0,93,0.04,,-RA,0.24,VWS V14.00,2013-04-11 09:10:00,
2013-04-11 04:15:00,40.3,38.4,28.53,NNW,340,0.0,0.0,93,0.04,,-RA,0.24,VWS V14.00,2013-04-11 09:15:00,
2013-04-11 04:20:00,40.3,38.4,28.53,NNW,340,0.0,0.0,93,0.04,,-RA,0.24,VWS V14.00,2013-04-11 09:20:00,
2013-04-11 04:25:00,40.3,38.4,28.53,NNW,340,0.0,0.0,93,0.04,,OVC033,0.24,VWS V14.00,2013-04-11 09:25:00,
2013-04-11 04:30:00,40.3,38.4,28.50,WNW,292,0.0,0.0,93,0.04,,OVC033,0.24,VWS V14.00,2013-04-11 09:30:00,
2013-04-11 04:35:00,40.3,38.4,28.50,WNW,292,0.0,0.0,93,0.04,,OVC030,0.24,VWS V14.00,2013-04-11 09:35:00,
2013-04-11 04:40:00,40.3,38.4,28.50,West,271,3.1,3.1,93,0.04,,OVC030,0.24,VWS V14.00,2013-04-11 09:40:00,
2013-04-11 04:45:00,40.3,38.4,28.50,West,275,0.0,4.0,93,0.04,,OVC030,0.24,VWS V14.00,2013-04-11 09:45:00,
2013-04-11 04:50:00,40.1,38.2,28.50,WNW,295,0.0,0.0,93,0.00,,OVC030,0.24,VWS V14.00,2013-04-11 09:50:00,
2013-04-11 04:55:00,40.1,38.2,28.50,West,269,2.2,2.7,93,0.00,,OVC030,0.24,VWS V14.00,2013-04-11 09:55:00,
2013-04-11 05:00:00,39.9,38.1,28.50,WNW,286,3.1,3.1,93,0.00,,OVC028,0.24,VWS V14.00,2013-04-11 10:00:00,
2013-04-11 05:05:00,39.9,38.1,28.50,NW,311,0.0,3.6,93,0.00,,OVC028,0.24,VWS V14.00,2013-04-11 10:05:00,
2013-04-11 05:10:00,39.9,38.1,28.50,NW,311,0.0,0.0,93,0.00,,OVC028,0.24,VWS V14.00,2013-04-11 10:10:00,
2013-04-11 05:15:00,39.7,37.9,28.50,NW,316,3.1,3.6,93,0.00,,OVC028,0.24,VWS V14.00,2013-04-11 10:15:00,
2013-04-11 05:20:00,39.7,37.9,28.50,North,353,0.0,0.0,93,0.00,,OVC028,0.24,VWS V14.00,2013-04-11 10:20:00,
2013-04-11 05:25:00,39.7,37.9,28.50,NW,326,0.0,3.6,93,0.00,,,0.24,VWS V14.00,2013-04-11 10:25:00,
2013-04-11 05:30:00,39.7,37.9,28.50,North,353,2.7,2.7,93,0.00,,,0.24,VWS V14.00,2013-04-11 10:30:00,
2013-04-11 05:35:00,39.7,37.9,28.50,North,353,0.0,2.7,93,0.00,,,0.24,VWS V14.00,2013-04-11 10:35:00,
2013-04-11 05:40:00,39.7,37.9,28.50,North,350,2.2,3.6,93,0.00,,,0.24,VWS V14.00,2013-04-11 10:40:00,
2013-04-11 05:45:00,39.9,38.1,28.50,NNW,340,0.0,4.0,93,0.00,,,0.24,VWS V14.00,2013-04-11 10:45:00,
2013-04-11 05:50:00,39.9,38.1,28.50,NNE,16,0.0,0.0,93,0.00,,,0.24,VWS V14.00,2013-04-11 10:50:00,
2013-04-11 05:55:00,39.9,38.1,28.50,NNE,16,0.0,3.6,93,0.00,,,0.24,VWS V14.00,2013-04-11 10:55:00,
2013-04-11 06:00:00,39.9,38.1,28.50,NNE,16,0.0,3.6,93,0.00,,,0.24,VWS V14.00,2013-04-11 11:00:00,
2013-04-11 06:05:00,39.9,38.1,28.50,NNW,334,0.0,3.6,93,0.00,,,0.24,VWS V14.00,2013-04-11 11:05:00,
2013-04-11 06:10:00,39.9,38.1,28.50,NNW,335,0.0,0.0,93,0.00,,,0.24,VWS V14.00,2013-04-11 11:10:00,
2013-04-11 06:15:00,39.9,38.1,28.50,NNW,335,0.0,0.0,93,0.00,,,0.24,VWS V14.00,2013-04-11 11:15:00,
2013-04-11 06:20:00,39.9,38.1,28.50,NNW,335,0.0,0.0,93,0.00,,,0.24,VWS V14.00,2013-04-11 11:20:00,
2013-04-11 06:25:00,40.1,38.2,28.50,NNW,335,0.0,0.0,93,0.00,,,0.24,VWS V14.00,2013-04-11 11:25:00,
2013-04-11 06:30:00,40.1,38.2,28.50,NNW,335,0.0,0.0,93,0.00,,,0.24,VWS V14.00,2013-04-11 11:30:00,
2013-04-11 06:35:00,39.9,38.1,28.50,NNW,335,0.0,0.0,93,0.00,,,0.24,VWS V14.00,2013-04-11 11:35:00,
2013-04-11 06:40:00,40.1,38.2,28.50,NNW,335,0.0,0.0,93,0.00,,,0.24,VWS V14.00,2013-04-11 11:40:00,
2013-04-11 06:45:00,40.1,38.5,28.50,NNW,335,0.0,0.0,94,0.00,,,0.24,VWS V14.00,2013-04-11 11:45:00,
2013-04-11 06:50:00,40.3,38.7,28.50,NNW,335,0.0,0.0,94,0.00,,,0.24,VWS V14.00,2013-04-11 11:50:00,
2013-04-11 06:55:00,40.3,38.7,28.50,NNW,335,0.0,0.0,94,0.00,,,0.24,VWS V14.00,2013-04-11 11:55:00,
2013-04-11 07:00:00,40.3,38.7,28.50,NNW,335,0.0,0.0,94,0.00,,,0.24,VWS V14.00,2013-04-11 12:00:00,
2013-04-11 07:05:00,40.5,38.9,28.50,NNW,335,0.0,0.0,94,0.00,,,0.24,VWS V14.00,2013-04-11 12:05:00,
2013-04-11 07:10:00,40.6,39.0,28.50,NNW,335,0.0,0.0,94,0.00,,,0.24,VWS V14.00,2013-04-11 12:10:00,
2013-04-11 07:15:00,40.6,39.0,28.50,NNW,335,0.0,0.0,94,0.00,,,0.24,VWS V14.00,2013-04-11 12:15:00,
2013-04-11 07:20:00,40.6,39.0,28.50,NNW,335,0.0,0.0,94,0.00,,,0.24,VWS V14.00,2013-04-11 12:20:00,
2013-04-11 07:25:00,41.0,39.1,28.50,NNW,335,0.0,0.0,93,0.00,,,0.24,VWS V14.00,2013-04-11 12:25:00,
2013-04-11 07:30:00,41.0,39.1,28.50,NNW,335,0.0,0.0,93,0.00,,,0.24,VWS V14.00,2013-04-11 12:30:00,
2013-04-11 07:35:00,41.0,39.1,28.50,NNW,335,0.0,0.0,93,0.00,,,0.24,VWS V14.00,2013-04-11 12:35:00,
2013-04-11 07:40:00,41.2,39.3,28.50,NNW,335,0.0,2.2,93,0.00,,,0.24,VWS V14.00,2013-04-11 12:40:00,
2013-04-11 07:45:00,41.2,39.3,28.50,NNW,335,0.0,2.2,93,0.00,,,0.24,VWS V14.00,2013-04-11 12:45:00,
2013-04-11 07:50:00,41.0,39.1,28.50,NNW,335,0.0,0.0,93,0.00,,,0.24,VWS V14.00,2013-04-11 12:50:00,
2013-04-11 07:55:00,41.0,39.1,28.50,ENE,62,0.0,0.0,93,0.00,,,0.24,VWS V14.00,2013-04-11 12:55:00,
2013-04-11 08:00:00,41.0,39.1,28.50,ENE,62,0.0,0.0,93,0.00,,,0.24,VWS V14.00,2013-04-11 13:00:00,
2013-04-11 08:05:00,41.2,39.3,28.50,NE,37,2.7,2.7,93,0.00,,,0.24,VWS V14.00,2013-04-11 13:05:00,
2013-04-11 08:10:00,41.4,39.5,28.50,ENE,64,0.0,0.0,93,0.00,,,0.24,VWS V14.00,2013-04-11 13:10:00,
2013-04-11 08:15:00,41.5,39.7,28.50,ENE,64,0.0,0.0,93,0.00,,,0.24,VWS V14.00,2013-04-11 13:15:00,
2013-04-11 08:20:00,41.5,39.7,28.50,SE,127,2.2,2.7,93,0.00,,,0.24,VWS V14.00,2013-04-11 13:20:00,
2013-04-11 08:25:00,41.5,39.7,28.50,SSE,148,2.7,3.6,93,0.00,,,0.24,VWS V14.00,2013-04-11 13:25:00,
2013-04-11 08:30:00,41.5,39.7,28.53,SE,135,0.0,0.0,93,0.00,,,0.24,VWS V14.00,2013-04-11 13:30:00,
2013-04-11 08:35:00,41.7,39.8,28.53,SE,126,2.7,3.6,93,0.00,,,0.24,VWS V14.00,2013-04-11 13:35:00,
2013-04-11 08:40:00,41.9,40.0,28.53,SE,140,2.7,2.7,93,0.00,,,0.24,VWS V14.00,2013-04-11 13:40:00,
2013-04-11 08:45:00,42.4,40.8,28.50,SE,127,3.6,3.6,94,0.00,,,0.24,VWS V14.00,2013-04-11 13:45:00,
2013-04-11 08:50:00,42.3,40.7,28.50,SE,129,0.0,0.0,94,0.00,,,0.24,VWS V14.00,2013-04-11 13:50:00,
2013-04-11 08:55:00,42.3,40.7,28.50,SSE,167,3.6,4.0,94,0.00,,,0.24,VWS V14.00,2013-04-11 13:55:00,
2013-04-11 09:00:00,42.1,40.5,28.50,SSE,152,0.0,0.0,94,0.00,,,0.24,VWS V14.00,2013-04-11 14:00:00,
2013-04-11 09:05:00,42.3,40.7,28.50,SSE,156,0.0,5.8,94,0.00,,,0.24,VWS V14.00,2013-04-11 14:05:00,
2013-04-11 09:10:00,42.4,40.8,28.50,SSE,157,2.7,3.6,94,0.00,,,0.24,VWS V14.00,2013-04-11 14:10:00,
2013-04-11 09:15:00,43.0,41.4,28.50,SE,145,0.0,6.3,94,0.00,,,0.24,VWS V14.00,2013-04-11 14:15:00,
2013-04-11 09:20:00,43.3,41.7,28.50,SSE,152,4.0,4.0,94,0.00,,,0.24,VWS V14.00,2013-04-11 14:20:00,
2013-04-11 09:25:00,42.6,41.0,28.50,SSE,149,4.9,5.8,94,0.00,,OVC014,0.24,VWS V14.00,2013-04-11 14:25:00,
2013-04-11 09:30:00,43.0,41.4,28.50,SSE,156,6.7,6.7,94,0.00,,OVC014,0.24,VWS V14.00,2013-04-11 14:30:00,
2013-04-11 09:35:00,42.8,41.2,28.50,SE,146,3.1,8.1,94,0.00,,OVC014,0.24,VWS V14.00,2013-04-11 14:35:00,
2013-04-11 09:40:00,43.7,42.1,28.50,SSE,152,5.8,8.1,94,0.00,,OVC014,0.24,VWS V14.00,2013-04-11 14:40:00,
2013-04-11 09:45:00,43.5,41.9,28.50,SE,124,5.8,8.3,94,0.00,,OVC014,0.24,VWS V14.00,2013-04-11 14:45:00,
2013-04-11 09:50:00,43.0,41.4,28.50,South,173,0.0,4.0,94,0.00,,OVC014,0.24,VWS V14.00,2013-04-11 14:50:00,
2013-04-11 09:55:00,42.4,40.8,28.50,SSE,155,5.8,7.6,94,0.00,,OVC014,0.24,VWS V14.00,2013-04-11 14:55:00,
2013-04-11 10:00:00,41.5,40.0,28.50,ESE,117,5.4,5.4,94,0.00,,OVC014,0.24,VWS V14.00,2013-04-11 15:00:00,
2013-04-11 10:05:00,41.2,39.6,28.50,SSE,158,4.9,8.1,94,0.00,,OVC014,0.24,VWS V14.00,2013-04-11 15:05:00,
2013-04-11 10:10:00,40.8,39.2,28.50,SSE,151,3.1,5.4,94,0.00,,OVC014,0.24,VWS V14.00,2013-04-11 15:10:00,
2013-04-11 10:15:00,41.2,39.3,28.50,SE,137,4.9,6.3,93,0.00,,OVC014,0.24,VWS V14.00,2013-04-11 15:15:00,
2013-04-11 10:20:00,41.7,39.8,28.50,SSE,166,3.1,3.6,93,0.00,,OVC014,0.24,VWS V14.00,2013-04-11 15:20:00,
2013-04-11 10:25:00,42.6,40.7,28.50,South,173,0.0,5.8,93,0.00,,OVC014,0.24,VWS V14.00,2013-04-11 15:25:00,
2013-04-11 10:30:00,41.5,39.4,28.50,SSW,195,2.2,2.2,92,0.00,,OVC014,0.24,VWS V14.00,2013-04-11 15:30:00,
2013-04-11 10:35:00,42.4,40.3,28.50,SSE,152,4.9,5.8,92,0.00,,OVC014,0.24,VWS V14.00,2013-04-11 15:35:00,
2013-04-11 10:40:00,41.4,38.7,28.50,SSE,147,2.2,2.2,90,0.00,,OVC014,0.24,VWS V14.00,2013-04-11 15:40:00,
2013-04-11 10:45:00,41.2,38.2,28.50,SSE,165,3.6,7.6,89,0.00,,OVC014,0.24,VWS V14.00,2013-04-11 15:45:00,
2013-04-11 10:50:00,41.5,38.3,28.50,SSE,147,3.6,3.6,88,0.00,,OVC014,0.24,VWS V14.00,2013-04-11 15:50:00,
2013-04-11 10:55:00,43.2,39.6,28.50,SE,142,4.0,6.3,87,0.00,,OVC014,0.24,VWS V14.00,2013-04-11 15:55:00,
2013-04-11 11:00:00,42.8,38.0,28.50,SSE,151,5.8,5.8,83,0.00,,-RA,0.24,VWS V14.00,2013-04-11 16:00:00,
2013-04-11 11:05:00,42.8,34.4,28.50,SSE,155,3.6,7.6,72,0.00,,-RA,0.24,VWS V14.00,2013-04-11 16:05:00,
2013-04-11 11:10:00,43.5,31.4,28.50,SSE,168,3.1,3.1,62,0.00,,-RA,0.24,VWS V14.00,2013-04-11 16:10:00,
2013-04-11 11:15:00,43.3,26.9,28.47,SSE,161,0.0,5.4,52,0.00,,-RA,0.24,VWS V14.00,2013-04-11 16:15:00,
2013-04-11 11:20:00,42.3,25.4,28.47,SSE,155,4.0,4.9,51,0.00,,-RA,0.24,VWS V14.00,2013-04-11 16:20:00,
2013-04-11 11:25:00,42.1,26.2,28.47,SSE,147,2.7,11.0,53,0.00,,-RA,0.24,VWS V14.00,2013-04-11 16:25:00,
2013-04-11 11:30:00,41.7,24.5,28.47,SE,136,4.9,5.8,50,0.00,,-RA,0.24,VWS V14.00,2013-04-11 16:30:00,
2013-04-11 11:35:00,41.0,23.8,28.47,SE,124,3.6,6.3,50,0.00,,-RA,0.24,VWS V14.00,2013-04-11 16:35:00,
2013-04-11 11:40:00,40.1,23.4,28.50,SSE,151,4.9,4.9,51,0.00,,-RA,0.24,VWS V14.00,2013-04-11 16:40:00,
2013-04-11 11:45:00,39.2,23.1,28.50,SSW,200,3.6,11.0,52,0.00,,-RA,0.24,VWS V14.00,2013-04-11 16:45:00,
2013-04-11 11:50:00,39.2,24.8,28.50,SSE,166,3.1,3.1,56,0.00,,-RA,0.24,VWS V14.00,2013-04-11 16:50:00,
2013-04-11 11:55:00,38.8,24.5,28.50,SE,145,3.1,9.6,56,0.00,,-RA,0.24,VWS V14.00,2013-04-11 16:55:00,
2013-04-11 12:00:00,38.7,25.2,28.50,SSE,156,3.6,6.3,58,0.00,,-RA,0.24,VWS V14.00,2013-04-11 17:00:00,
2013-04-11 12:05:00,39.0,26.7,28.50,SSE,164,3.6,10.1,61,0.00,,-RA,0.24,VWS V14.00,2013-04-11 17:05:00,
2013-04-11 12:10:00,39.2,27.3,28.50,SSE,167,6.3,8.1,62,0.00,,-RA,0.24,VWS V14.00,2013-04-11 17:10:00,
2013-04-11 12:15:00,39.2,28.1,28.50,SE,145,2.7,8.3,64,0.00,,-RA,0.24,VWS V14.00,2013-04-11 17:15:00,
2013-04-11 12:20:00,39.4,28.2,28.50,SSW,192,2.7,5.8,64,0.00,,-RA,0.24,VWS V14.00,2013-04-11 17:20:00,
2013-04-11 12:25:00,39.7,29.7,28.50,South,171,2.2,5.8,67,0.00,,-RA,0.24,VWS V14.00,2013-04-11 17:25:00,
2013-04-11 12:30:00,40.5,30.8,28.50,SSE,149,7.6,7.6,68,0.00,,-RA,0.24,VWS V14.00,2013-04-11 17:30:00,
2013-04-11 12:35:00,40.5,29.3,28.50,SE,137,3.6,8.1,64,0.00,,-RA,0.24,VWS V14.00,2013-04-11 17:35:00,
2013-04-11 12:40:00,40.8,28.4,28.50,SSE,148,3.6,3.6,61,0.00,,-RA,0.24,VWS V14.00,2013-04-11 17:40:00,
2013-04-11 12:45:00,40.8,27.2,28.50,SSE,153,4.0,8.1,58,0.00,,-RA,0.24,VWS V14.00,2013-04-11 17:45:00,
2013-04-11 12:50:00,41.0,28.2,28.50,SSE,155,2.7,3.1,60,0.00,,-RA,0.24,VWS V14.00,2013-04-11 17:50:00,
2013-04-11 12:55:00,42.1,30.8,28.50,SE,140,2.2,6.3,64,0.00,,-RA,0.24,VWS V14.00,2013-04-11 17:55:00,
2013-04-11 13:00:00,41.0,27.4,28.50,SSE,153,8.1,9.2,58,0.00,,-RA,0.24,VWS V14.00,2013-04-11 18:00:00,
2013-04-11 13:05:00,40.5,28.5,28.50,SSW,209,5.4,8.1,62,0.00,,-RA,0.24,VWS V14.00,2013-04-11 18:05:00,
2013-04-11 13:10:00,42.1,29.2,28.50,SE,145,8.1,8.1,60,0.00,,-RA,0.24,VWS V14.00,2013-04-11 18:10:00,
2013-04-11 13:15:00,41.7,27.2,28.50,SE,140,6.3,8.7,56,0.00,,-RA,0.24,VWS V14.00,2013-04-11 18:15:00,
2013-04-11 13:20:00,39.4,24.1,28.50,SSE,147,5.8,5.8,54,0.00,,-RA,0.24,VWS V14.00,2013-04-11 18:20:00,
2013-04-11 13:25:00,38.8,26.6,28.50,SSE,160,7.2,8.3,61,0.00,,-RA,0.24,VWS V14.00,2013-04-11 18:25:00,
2013-04-11 13:30:00,38.8,27.3,28.50,SSE,151,6.3,8.3,63,0.00,,-RA,0.24,VWS V14.00,2013-04-11 18:30:00,
2013-04-11 13:35:00,38.7,26.8,28.50,SE,137,10.1,10.1,62,0.00,,-RA,0.24,VWS V14.00,2013-04-11 18:35:00,
2013-04-11 13:40:00,39.0,27.9,28.50,SSE,157,5.4,5.4,64,0.00,,-RA,0.24,VWS V14.00,2013-04-11 18:40:00,
2013-04-11 13:45:00,39.0,27.1,28.50,SE,135,7.6,10.1,62,0.00,,-RA,0.24,VWS V14.00,2013-04-11 18:45:00,
2013-04-11 13:50:00,38.5,26.2,28.50,SSE,162,5.4,10.1,61,0.00,,-RA,0.24,VWS V14.00,2013-04-11 18:50:00,
2013-04-11 13:55:00,37.9,26.5,28.50,SSE,160,4.0,9.6,63,0.00,,-RA,0.24,VWS V14.00,2013-04-11 18:55:00,
2013-04-11 14:00:00,38.1,27.4,28.50,SE,140,6.3,9.6,65,0.00,,-RA,0.00,VWS V14.00,2013-04-11 19:00:00,
2013-04-11 14:05:00,37.6,26.5,28.50,SE,133,4.9,9.6,64,0.00,,-RA,0.24,VWS V14.00,2013-04-11 19:05:00,
2013-04-11 14:10:00,37.8,27.8,28.50,SSE,149,5.8,5.8,67,0.00,,-RA,0.24,VWS V14.00,2013-04-11 19:10:00,
2013-04-11 14:15:00,37.8,27.8,28.50,South,180,4.9,10.5,67,0.00,,-RA,0.24,VWS V14.00,2013-04-11 19:15:00,
2013-04-11 14:20:00,37.6,28.0,28.50,SSE,157,4.9,8.1,68,0.00,,-RA,0.24,VWS V14.00,2013-04-11 19:20:00,
2013-04-11 14:25:00,38.1,28.9,28.50,SSE,153,8.1,8.1,69,0.00,,-RA,0.24,VWS V14.00,2013-04-11 19:25:00,
2013-04-11 14:30:00,37.8,27.1,28.50,South,170,4.0,6.3,65,0.00,,-RA,0.24,VWS V14.00,2013-04-11 19:30:00,
2013-04-11 14:35:00,38.8,29.5,28.50,SSE,158,3.6,7.2,69,0.00,,-RA,0.24,VWS V14.00,2013-04-11 19:35:00,
2013-04-11 14:40:00,38.5,27.0,28.50,South,182,3.1,4.0,63,0.00,,-RA,0.24,VWS V14.00,2013-04-11 19:40:00,
2013-04-11 14:45:00,38.5,27.4,28.50,SE,146,4.0,6.3,64,0.00,,-RA,0.24,VWS V14.00,2013-04-11 19:45:00,
2013-04-11 14:50:00,38.3,26.8,28.50,SE,130,6.7,6.7,63,0.00,,OVC027,0.24,VWS V14.00,2013-04-11 19:50:00,
2013-04-11 14:55:00,37.2,24.6,28.50,SSE,152,2.7,10.1,60,0.00,,OVC027,0.24,VWS V14.00,2013-04-11 19:55:00,
2013-04-11 15:00:00,38.1,25.9,28.50,SSE,148,6.3,6.3,61,0.00,,,0.24,VWS V14.00,2013-04-11 20:00:00,
2013-04-11 15:05:00,37.9,24.5,28.50,SSE,167,6.3,8.7,58,0.00,,,0.24,VWS V14.00,2013-04-11 20:05:00,
2013-04-11 15:10:00,37.8,23.1,28.50,SSW,197,4.0,4.0,55,0.00,,,0.24,VWS V14.00,2013-04-11 20:10:00,
2013-04-11 15:15:00,38.1,23.4,28.50,SSE,157,5.4,12.8,55,0.00,,,0.24,VWS V14.00,2013-04-11 20:15:00,
2013-04-11 15:20:00,37.9,21.9,28.50,SSE,152,2.7,4.9,52,0.00,,,0.24,VWS V14.00,2013-04-11 20:20:00,
2013-04-11 15:25:00,38.5,22.4,28.50,SSE,162,3.1,8.7,52,0.00,,,0.24,VWS V14.00,2013-04-11 20:25:00,
2013-04-11 15:30:00,37.2,22.1,28.50,South,183,2.7,2.7,54,0.00,,,0.24,VWS V14.00,2013-04-11 20:30:00,
2013-04-11 15:35:00,36.1,22.8,28.50,SSE,147,3.1,5.8,58,0.00,,,0.24,VWS V14.00,2013-04-11 20:35:00,
2013-04-11 15:40:00,39.9,28.8,28.50,South,179,4.9,4.9,64,0.00,,,0.24,VWS V14.00,2013-04-11 20:40:00,
2013-04-11 15:45:00,39.2,23.1,28.50,South,191,2.7,6.3,52,0.00,,,0.24,VWS V14.00,2013-04-11 20:45:00,
2013-04-11 15:50:00,42.1,26.2,28.50,SE,139,5.8,5.8,53,0.00,,,0.24,VWS V14.00,2013-04-11 20:50:00,
2013-04-11 15:55:00,43.3,22.4,28.50,SSE,153,7.6,7.6,43,0.00,,,0.24,VWS V14.00,2013-04-11 20:55:00,
2013-04-11 16:00:00,43.3,20.1,28.50,South,183,0.0,7.6,39,0.00,,,0.24,VWS V14.00,2013-04-11 21:00:00,
2013-04-11 16:05:00,42.4,19.2,28.50,South,171,3.1,5.4,39,0.00,,OVC250,0.24,VWS V14.00,2013-04-11 21:05:00,
2013-04-11 16:10:00,41.5,18.4,28.50,South,183,3.1,8.1,39,0.00,,OVC250,0.24,VWS V14.00,2013-04-11 21:10:00,
2013-04-11 16:15:00,40.3,18.5,28.50,SE,145,6.3,8.3,41,0.00,,OVC250,0.24,VWS V14.00,2013-04-11 21:15:00,
2013-04-11 16:20:00,39.4,18.8,28.50,South,169,6.3,6.3,43,0.00,,OVC250,0.24,VWS V14.00,2013-04-11 21:20:00,
2013-04-11 16:25:00,39.0,19.0,28.50,ESE,122,6.7,9.6,44,0.00,,OVC250,0.24,VWS V14.00,2013-04-11 21:25:00,
2013-04-11 16:30:00,38.3,18.3,28.50,SSE,157,4.0,4.9,44,0.00,,OVC250,0.24,VWS V14.00,2013-04-11 21:30:00,
2013-04-11 16:35:00,37.4,20.0,28.50,SSE,149,4.0,8.7,49,0.00,,OVC250,0.24,VWS V14.00,2013-04-11 21:35:00,
2013-04-11 16:40:00,36.5,21.5,28.50,SE,142,5.8,5.8,54,0.00,,OVC250,0.24,VWS V14.00,2013-04-11 21:40:00,
2013-04-11 16:45:00,36.5,23.1,28.50,SE,143,5.4,7.6,58,0.00,,OVC250,0.24,VWS V14.00,2013-04-11 21:45:00,
2013-04-11 16:50:00,35.6,22.7,28.50,SSE,158,3.1,3.6,59,0.00,,OVC250,0.24,VWS V14.00,2013-04-11 21:50:00,
2013-04-11 16:55:00,34.9,23.6,28.50,SE,143,6.3,7.6,63,0.00,,OVC026,0.24,VWS V14.00,2013-04-11 21:55:00,
2013-04-11 17:00:00,34.9,25.0,28.50,SSE,155,8.1,11.0,67,0.00,,OVC028,0.24,VWS V14.00,2013-04-11 22:00:00,
2013-04-11 17:05:00,35.2,26.5,28.50,SSE,155,3.6,11.0,70,0.00,,OVC028,0.24,VWS V14.00,2013-04-11 22:05:00,
2013-04-11 17:10:00,35.4,27.3,28.50,SSE,163,0.0,0.0,72,0.00,,OVC028,0.24,VWS V14.00,2013-04-11 22:10:00,
2013-04-11 17:15:00,35.6,27.5,28.50,SE,143,4.0,4.0,72,0.00,,OVC028,0.24,VWS V14.00,2013-04-11 22:15:00,
2013-04-11 17:20:00,36.1,28.7,28.50,SW,216,0.0,4.0,74,0.00,,OVC028,0.24,VWS V14.00,2013-04-11 22:20:00,
2013-04-11 17:25:00,36.1,28.7,28.50,SSE,154,0.0,8.3,74,0.00,,OVC028,0.24,VWS V14.00,2013-04-11 22:25:00,
2013-04-11 17:30:00,36.3,29.2,28.50,SE,142,4.0,4.0,75,0.00,,,0.24,VWS V14.00,2013-04-11 22:30:00,
2013-04-11 17:35:00,36.3,28.8,28.50,SSE,149,2.7,8.1,74,0.00,,,0.24,VWS V14.00,2013-04-11 22:35:00,
2013-04-11 17:40:00,36.5,29.0,28.50,SSE,153,3.1,4.9,74,0.00,,,0.24,VWS V14.00,2013-04-11 22:40:00,
2013-04-11 17:45:00,36.3,28.5,28.47,SSE,151,5.8,7.2,73,0.00,,OVC033,0.24,VWS V14.00,2013-04-11 22:45:00,
2013-04-11 17:50:00,36.5,28.4,28.47,SSE,164,7.6,7.6,72,0.00,,OVC033,0.24,VWS V14.00,2013-04-11 22:50:00,
2013-04-11 17:55:00,36.1,27.3,28.47,South,174,3.1,7.6,70,0.00,,OVC033,0.24,VWS V14.00,2013-04-11 22:55:00,
2013-04-11 18:00:00,36.1,27.3,28.47,SSE,158,6.3,6.3,70,0.00,,OVC038,0.24,VWS V14.00,2013-04-11 23:00:00,
2013-04-11 18:05:00,35.8,26.6,28.47,SE,130,6.3,7.2,69,0.00,,OVC038,0.24,VWS V14.00,2013-04-11 23:05:00,
2013-04-11 18:10:00,35.8,27.0,28.47,SE,146,7.2,7.2,70,0.00,,OVC036,0.24,VWS V14.00,2013-04-11 23:10:00,
2013-04-11 18:15:00,35.4,26.6,28.47,SE,130,6.3,10.1,70,0.00,,OVC036,0.24,VWS V14.00,2013-04-11 23:15:00,
2013-04-11 18:20:00,35.8,27.0,28.47,SSW,194,2.7,5.4,70,0.00,,OVC036,0.24,VWS V14.00,2013-04-11 23:20:00,
2013-04-11 18:25:00,35.8,25.2,28.47,SSE,163,5.4,8.7,65,0.00,,OVC036,0.24,VWS V14.00,2013-04-11 23:25:00,
2013-04-11 18:30:00,36.1,24.0,28.47,SSW,197,2.2,2.2,61,0.00,,OVC036,0.24,VWS V14.00,2013-04-11 23:30:00,
2013-04-11 18:35:00,36.7,23.7,28.47,SW,216,2.7,5.4,59,0.00,,OVC036,0.24,VWS V14.00,2013-04-11 23:35:00,
2013-04-11 18:40:00,36.9,22.6,28.47,SSW,210,2.7,4.9,56,0.00,,OVC036,0.24,VWS V14.00,2013-04-11 23:40:00,
2013-04-11 18:45:00,37.0,22.0,28.47,SSE,149,4.0,6.3,54,0.00,,OVC036,0.24,VWS V14.00,2013-04-11 23:45:00,
2013-04-11 18:50:00,37.0,21.5,28.47,SSE,153,0.0,4.9,53,0.00,,OVC036,0.24,VWS V14.00,2013-04-11 23:50:00,
2013-04-11 18:55:00,36.9,21.3,28.47,South,176,3.6,10.5,53,0.00,,OVC036,0.24,VWS V14.00,2013-04-11 23:55:00,
2013-04-11 19:00:00,36.7,21.2,28.47,SSE,149,2.7,4.0,53,0.00,,OVC055,0.24,VWS V14.00,2013-04-12 00:00:00,
2013-04-11 19:05:00,36.3,20.8,28.47,South,177,2.7,8.7,53,0.00,,OVC055,0.24,VWS V14.00,2013-04-12 00:05:00,
2013-04-11 19:10:00,36.3,21.3,28.47,SSE,157,8.7,8.7,54,0.00,,OVC055,0.24,VWS V14.00,2013-04-12 00:10:00,
2013-04-11 19:15:00,36.3,21.3,28.47,SSE,157,3.1,8.7,54,0.00,,OVC055,0.24,VWS V14.00,2013-04-12 00:15:00,
2013-04-11 19:20:00,36.1,21.5,28.47,SSE,161,8.3,8.3,55,0.00,,OVC055,0.24,VWS V14.00,2013-04-12 00:20:00,
2013-04-11 19:25:00,36.1,21.5,28.47,SE,131,5.4,8.3,55,0.00,,OVC055,0.24,VWS V14.00,2013-04-12 00:25:00,
2013-04-11 19:30:00,36.1,22.0,28.50,SE,137,3.6,3.6,56,0.00,,OVC055,0.24,VWS V14.00,2013-04-12 00:30:00,
2013-04-11 19:35:00,36.0,21.8,28.50,South,182,0.0,5.8,56,0.00,,OVC055,0.24,VWS V14.00,2013-04-12 00:35:00,
2013-04-11 19:40:00,36.0,21.8,28.50,SE,146,5.8,5.8,56,0.00,,OVC055,0.24,VWS V14.00,2013-04-12 00:40:00,
2013-04-11 19:45:00,35.8,21.2,28.50,SSE,151,4.0,8.3,55,0.00,,OVC055,0.24,VWS V14.00,2013-04-12 00:45:00,
2013-04-11 19:50:00,35.8,21.2,28.50,SSE,148,6.3,6.3,55,0.00,,OVC055,0.24,VWS V14.00,2013-04-12 00:50:00,
2013-04-11 19:55:00,35.8,21.2,28.50,SSE,152,4.9,8.3,55,0.00,,OVC055,0.24,VWS V14.00,2013-04-12 00:55:00,
2013-04-11 20:00:00,35.8,21.6,28.50,ESE,119,0.0,3.1,56,0.00,,OVC034,0.24,VWS V14.00,2013-04-12 01:00:00,
2013-04-11 20:05:00,35.8,21.6,28.50,ESE,123,4.9,5.4,56,0.00,,OVC034,0.24,VWS V14.00,2013-04-12 01:05:00,
2013-04-11 20:10:00,35.8,22.0,28.50,SSE,159,3.1,4.0,57,0.00,,OVC034,0.24,VWS V14.00,2013-04-12 01:10:00,
2013-04-11 20:15:00,35.6,21.9,28.50,SE,139,5.8,6.3,57,0.00,,OVC034,0.24,VWS V14.00,2013-04-12 01:15:00,
2013-04-11 20:20:00,35.6,22.3,28.50,SE,131,4.0,4.0,58,0.00,,OVC034,0.24,VWS V14.00,2013-04-12 01:20:00,
2013-04-11 20:25:00,35.8,22.5,28.50,SE,124,5.8,7.6,58,0.00,,OVC034,0.24,VWS V14.00,2013-04-12 01:25:00,
2013-04-11 20:30:00,35.8,22.5,28.50,ESE,123,6.3,6.3,58,0.00,,OVC034,0.24,VWS V14.00,2013-04-12 01:30:00,
2013-04-11 20:35:00,35.8,22.5,28.50,SE,131,3.1,7.6,58,0.00,,OVC034,0.24,VWS V14.00,2013-04-12 01:35:00,
2013-04-11 20:40:00,35.8,22.5,28.50,SE,144,0.0,0.0,58,0.00,,OVC038,0.24,VWS V14.00,2013-04-12 01:40:00,
2013-04-11 20:45:00,35.8,22.9,28.50,SSE,147,4.0,5.4,59,0.00,,OVC038,0.24,VWS V14.00,2013-04-12 01:45:00,
2013-04-11 20:50:00,35.8,23.3,28.50,SSE,149,5.4,5.8,60,0.00,,OVC038,0.24,VWS V14.00,2013-04-12 01:50:00,
2013-04-11 20:55:00,35.6,23.5,28.50,SSE,147,4.0,8.1,61,0.00,,OVC038,0.24,VWS V14.00,2013-04-12 01:55:00,
2013-04-11 21:00:00,35.6,23.5,28.50,SE,140,5.4,5.4,61,0.00,,OVC040,0.24,VWS V14.00,2013-04-12 02:00:00,
2013-04-11 21:05:00,35.6,23.5,28.50,SSE,150,0.0,6.3,61,0.00,,OVC040,0.24,VWS V14.00,2013-04-12 02:05:00,
2013-04-11 21:10:00,35.6,23.9,28.50,SE,138,0.0,4.0,62,0.00,,OVC040,0.24,VWS V14.00,2013-04-12 02:10:00,
2013-04-11 21:15:00,35.6,24.3,28.50,SSE,156,0.0,4.0,63,0.00,,OVC040,0.24,VWS V14.00,2013-04-12 02:15:00,
2013-04-11 21:20:00,35.4,24.5,28.50,SSE,152,3.6,3.6,64,0.00,,OVC040,0.24,VWS V14.00,2013-04-12 02:20:00,
2013-04-11 21:25:00,34.9,24.0,28.50,SSE,152,0.0,3.6,64,0.00,,OVC040,0.24,VWS V14.00,2013-04-12 02:25:00,
2013-04-11 21:30:00,34.9,24.3,28.50,SE,144,2.2,2.7,65,0.00,,OVC040,0.24,VWS V14.00,2013-04-12 02:30:00,
2013-04-11 21:35:00,34.9,24.7,28.50,SE,145,0.0,2.7,66,0.00,,OVC040,0.24,VWS V14.00,2013-04-12 02:35:00,
2013-04-11 21:40:00,34.9,25.4,28.50,SE,144,4.9,5.4,68,0.00,,OVC037,0.24,VWS V14.00,2013-04-12 02:40:00,
2013-04-11 21:45:00,34.9,25.8,28.50,SE,136,3.6,5.4,69,0.00,,OVC037,0.24,VWS V14.00,2013-04-12 02:45:00,
2013-04-11 21:50:00,35.1,26.3,28.50,SSE,147,0.0,0.0,70,0.00,,OVC037,0.24,VWS V14.00,2013-04-12 02:50:00,
2013-04-11 21:55:00,35.1,26.6,28.50,SE,144,0.0,4.0,71,0.00,,OVC037,0.24,VWS V14.00,2013-04-12 02:55:00,
2013-04-11 22:00:00,35.2,27.1,28.50,SSE,152,2.7,2.7,72,0.00,,OVC037,0.24,VWS V14.00,2013-04-12 03:00:00,
2013-04-11 22:05:00,35.2,27.5,28.50,SSE,161,2.7,5.8,73,0.00,,-RA,0.24,VWS V14.00,2013-04-12 03:05:00,
2013-04-11 22:10:00,35.4,28.0,28.50,SE,139,5.4,5.4,74,0.00,,-RA,0.24,VWS V14.00,2013-04-12 03:10:00,
2013-04-11 22:15:00,35.4,28.3,28.50,ESE,120,3.6,5.4,75,0.00,,-RA,0.24,VWS V14.00,2013-04-12 03:15:00,
2013-04-11 22:20:00,35.4,28.6,28.50,SE,140,0.0,2.7,76,0.00,,-RA,0.24,VWS V14.00,2013-04-12 03:20:00,
2013-04-11 22:24:00,35.6,28.8,28.50,SSE,151,3.6,6.3,76,0.00,,-RA,0.24,VWS V14.00,2013-04-12 03:24:00,
2013-04-11 22:29:00,35.6,29.1,28.50,SSE,151,4.0,4.0,77,0.00,,-RA,0.24,VWS V14.00,2013-04-12 03:29:00,
2013-04-11 22:35:00,35.8,29.6,28.50,SSE,151,3.6,5.8,78,0.00,,-RA,0.24,VWS V14.00,2013-04-12 03:35:00,
2013-04-11 22:40:00,35.8,29.6,28.50,SE,135,2.7,3.6,78,0.00,,-RA,0.24,VWS V14.00,2013-04-12 03:40:00,
2013-04-11 22:45:00,35.8,29.9,28.50,South,175,0.0,8.7,79,0.00,,,0.24,VWS V14.00,2013-04-12 03:45:00,
2013-04-11 22:50:00,36.0,30.4,28.50,South,176,3.1,4.5,80,0.00,,,0.24,VWS V14.00,2013-04-12 03:50:00,
2013-04-11 22:55:00,36.0,30.7,28.50,SE,142,2.7,5.4,81,0.00,,,0.24,VWS V14.00,2013-04-12 03:55:00,
2013-04-11 22:59:00,36.1,31.2,28.47,South,188,3.1,6.3,82,0.00,,,0.24,VWS V14.00,2013-04-12 03:59:00,
2013-04-11 23:00:00,36.1,31.2,28.47,SSW,205,2.7,6.3,82,0.00,,,0.24,VWS V14.00,2013-04-12 04:00:00,
2013-04-11 23:05:00,36.0,31.3,28.47,South,176,4.0,7.2,83,0.00,,,0.24,VWS V14.00,2013-04-12 04:05:00,
2013-04-11 23:10:00,36.0,31.6,28.47,SW,219,3.6,4.0,84,0.00,,,0.24,VWS V14.00,2013-04-12 04:10:00,
2013-04-11 23:15:00,36.0,31.6,28.50,South,175,2.7,12.8,84,0.00,,,0.24,VWS V14.00,2013-04-12 04:15:00,
2013-04-11 23:20:00,36.0,31.9,28.50,SSE,163,4.9,4.9,85,0.00,,,0.24,VWS V14.00,2013-04-12 04:20:00,
2013-04-11 23:25:00,35.8,31.7,28.50,SSE,168,3.1,8.3,85,0.00,,,0.24,VWS V14.00,2013-04-12 04:25:00,
2013-04-11 23:30:00,36.0,31.9,28.50,SSW,196,4.9,5.4,85,0.00,,,0.24,VWS V14.00,2013-04-12 04:30:00,
2013-04-11 23:35:00,35.8,32.0,28.50,SSE,160,0.0,8.1,86,0.00,,,0.24,VWS V14.00,2013-04-12 04:35:00,
2013-04-11 23:40:00,36.0,32.2,28.50,SSE,158,2.2,3.1,86,0.00,,,0.24,VWS V14.00,2013-04-12 04:40:00,
2013-04-11 23:45:00,36.0,32.2,28.50,South,188,3.1,5.4,86,0.00,,,0.24,VWS V14.00,2013-04-12 04:45:00,
2013-04-11 23:50:00,36.0,32.2,28.50,South,182,2.7,5.4,86,0.00,,,0.24,VWS V14.00,2013-04-12 04:50:00,
2013-04-11 23:55:00,36.0,32.5,28.50,SSE,160,4.0,5.8,87,0.00,,OVC014,0.24,VWS V14.00,2013-04-12 04:55:00,